Regional Weather Roundup
Issued by NWS

Home | Current Version | Previous Version | Graphics & Text | Print | Product List | Glossary On
Versions: 1 2 3 4 5 6 7 8 9 10 11 12 13 14 15 16 17 18 19 20 21 22 23 24 25 26 27 28 29 30 31 32 33 34 35 36 37 38 39 40 41 42 43 44 45 46 47 48 49 50
000
ASUS43 KDMX 131708
RWRIA

WEATHER ROUNDUP FOR IOWA
NATIONAL WEATHER SERVICE DES MOINES IA
1100 AM CST SAT FEB 13 2016

NOTE: "FAIR" INDICATES FEW OR NO CLOUDS BELOW 12,000 FEET WITH NO
SIGNIFICANT WEATHER AND/OR OBSTRUCTIONS TO VISIBILITY.

* - THESE STATIONS ARE NOT NWS STATIONS...THUS NOT UNDER NWS
QUALITY CONTROL.  THEY ALSO DO NOT REPORT WEATHER SUCH
AS PRECIPITATION OR FOG.

IAZ001>003-012>014-020>022-031>034-043>046-131800-
   NORTHWEST IOWA

CITY           SKY/WX    TMP DP  RH WIND       PRES   REMARKS
CARROLL *      CLOUDY     5  -2  72 SE9       30.57F WCI  -9
CHEROKEE *     CLOUDY     7  -2  66 SE9       30.54F WCI  -7
DENISON *      CLOUDY     7   0  72 SE7       30.53F WCI  -5
LE MARS *      CLOUDY     7   0  72 SE12      30.54S WCI  -9
ORANGE CITY *  PTSUNNY    5   0  78 SE7       30.50S WCI  -7
SHELDON *      CLOUDY     3  -2  78 SE13      30.49F WCI -14
SIOUX CITY     CLOUDY     9  -1  64 SE15      30.53F WCI  -8
SPENCER        CLOUDY     2  -6  69 SE9       30.54F WCI -13
STORM LAKE *   MOSUNNY    3  -2  78 SE12      30.52F WCI -13
$$

IAZ055>058-069>071-079>083-090>094-131800-
   SOUTHWEST IOWA

CITY           SKY/WX    TMP DP  RH WIND       PRES   REMARKS
ATLANTIC *     CLOUDY    10   0  61 E9        30.57F WCI  -2
AUDUBON *      MOSUNNY    9   1  72 E8        30.56S WCI  -4
CLARINDA *     CLOUDY    14   1  57 SE8       30.59F WCI   3
COUNCIL BLFS * CLOUDY    12   5  73 SE10      30.53F WCI  -1
CRESTON *      CLOUDY    10  -2  56 SE9       30.58F WCI  -2
HARLAN  *      CLOUDY     9   1  72 E12       30.59F WCI  -6
LAMONI         CLOUDY    10  -1  61 E6        30.59F WCI   0
RED OAK *      CLOUDY    14   3  62 E10       30.57F WCI   1
SHENANDOAH *   CLOUDY    16   3  57 E8        30.58F WCI   5
$$

IAZ047>049-059>061-072>074-084-131800-
   CENTRAL IOWA

CITY           SKY/WX    TMP DP  RH WIND       PRES   REMARKS
AMES           CLOUDY     5  -3  69 CALM      30.62F
ANKENY *       CLOUDY     9  -4  56 SE6       30.63F WCI  -1
BOONE *        CLOUDY     3  -6  66 SE6       30.59F WCI  -8
CHARITON *     CLOUDY    10  -4  52 SE5       30.61F WCI   2
DES MOINES     PTSUNNY    9  -5  53 E6        30.62F WCI  -1
GRINNELL*      MOSUNNY    9  -2  61 CALM      30.62F
KNOXVILLE *    CLOUDY    10  -6  48 CALM      30.61F
MARSHALLTOWN   MOSUNNY    5  -4  66 E3        30.61F
NEWTON *       MOSUNNY    7  -4  61 CALM      30.62F
PELLA *        SUNNY     12  -6  44 SE3       30.65F
$$

IAZ004>006-015-016-023>025-035-036-131800-
   NORTH CENTRAL IOWA

CITY           SKY/WX    TMP DP  RH WIND       PRES   REMARKS
ALGONA *       CLOUDY     3  -4  72 S8        30.56F WCI -10
CLARION *      PTSUNNY    3  -8  60 S7        30.60S WCI  -9
ESTHERVILLE    CLOUDY     1  -5  75 S10       30.55F WCI -15
FORT DODGE *   CLOUDY     3  -6  66 S3        30.60F
MASON CITY     CLOUDY     1  -5  75 S5        30.61S WCI  -9
FOREST CITY *  SUNNY      3  -8  60 SE6       30.58S WCI  -8
WEBSTER CITY * CLOUDY     3  -6  66 SE5       30.58F WCI  -6
IOWA FALLS *     N/A      7  -6  56 SE5       30.61S HAZE    WCI  -2
$$

IAZ007>011-017>019-026>030-037>042-050>054-066-131800-
   NORTHEAST IOWA

CITY           SKY/WX    TMP DP  RH WIND       PRES   REMARKS
CEDAR RAPIDS   SUNNY     10  -5  50 N7        30.61F WCI  -1
CHARLES CITY * SUNNY      1 -13  51 NE5       30.61F WCI  -8
CLINTON *      SUNNY     13  -5  44 NW8       30.64F WCI   2
DECORAH *      SUNNY      1 -15  46 CALM      30.59F
DUBUQUE        SUNNY      5  -9  52 N5        30.60F WCI  -4
MONTICELLO *   SUNNY      7  -9  47 N5        30.63F WCI  -2
OELWEIN *      SUNNY      1 -11  55 VRB3      30.61F
WATERLOO       SUNNY      2 -10  57 E3        30.64F
$$

IAZ064-065-067-068-078-131800-
   EAST CENTRAL IOWA

CITY           SKY/WX    TMP DP  RH WIND       PRES   REMARKS
DAVENPORT      SUNNY     10  -8  44 N6        30.64F WCI   0
IOWA CITY      SUNNY     12  -9  38 NW8       30.66F WCI   0
MT. PLEASANT * SUNNY     16  -2  45 N3        30.65F
MUSCATINE *    SUNNY     14  -8  37 VRB5      30.68R WCI   6
QUAD CITIES    SUNNY     13  -8  39 VRB7      30.65F WCI   3
$$

IAZ062-063-075>077-085>089-095>099-131800-
   SOUTHEAST IOWA

CITY           SKY/WX    TMP DP  RH WIND       PRES   REMARKS
BURLINGTON     SUNNY     13  -4  46 VRB3      30.65S
FAIRFIELD *    MOSUNNY   10  -9  40 VRB3      30.65S
FORT MADISON * SUNNY     12  -2  52 CALM      30.65F
KEOKUK *       SUNNY     12  -4  48 CALM      30.65F
OSKALOOSA *      N/A     10  -2  56 CALM      30.65S
CENTERVILLE *  SUNNY     10   0  61 CALM      30.63F
OTTUMWA        SUNNY      9  -7  48 CALM      30.65S
WASHINGTON *   SUNNY     10  -6  48 CALM      30.66F
$$

ABBREVIATIONS USED IN REMARKS
   TC - TEMPERATURES IN CELSIUS
  WCI - WIND CHILL INDEX
   HX - HEAT INDEX
  VSB - VISIBILITY
$$




USA.gov is the U.S. government's official web portal to all federal, state and local government web resources and services.